Regional Weather Roundup
Issued by NWS Grand Forks, ND

Home | Current Version | Previous Version | Graphics & Text | Print | Product List | Glossary On
Versions: 1 2 3 4 5 6 7 8 9 10 11 12 13 14 15 16 17 18 19 20 21 22 23 24 25 26 27 28 29 30 31 32 33 34 35 36 37 38 39 40 41 42 43 44 45 46 47 48 49 50
000
ASUS43 KFGF 312331
RWRFGF
PRAIRIE TO PINES  WEATHER ROUNDUP
NATIONAL WEATHER SERVICE EASTERN NORTH DAKOTA/GRAND FORKS ND
600 PM CDT MON AUG 31 2015

 **SATELLITE DATA USED TO AUGMENT SKY COVER AT AUTOMATED STATIONS**
 *****  WEATHER ACROSS EASTERN NORTH DAKOTA  *****

CITY           SKY/WX    TMP DP  RH WIND       PRES   REMARKS
GRAND FORKS    CLOUDY    78  58  49 W13       29.79R
GRAND FRKS AFB CLOUDY    76  57  50 W8        29.81R
GRAND FRKS NWS   N/A     77 N/A N/A W14         N/A
DEVILS LAKE    MOSUNNY   79  41  25 W14       29.81S
FARGO          CLOUDY    80  66  62 SE3       29.82R
WAHPETON ARPT  CLOUDY    77  63  61 W9        29.85R
$$

 ***** WEATHER ACROSS CENTRAL AND WESTERN NORTH DAKOTA  *****

CITY           SKY/WX    TMP DP  RH WIND       PRES   REMARKS
BISMARCK       MOSUNNY   83  43  24 W9        29.87S
MINOT          SUNNY     78  38  23 W17       29.82S
JAMESTOWN      PTSUNNY   75  56  51 W8        29.86R
MINOT AFB      SUNNY     80  41  24 SW15G24   29.81R
GARRISON         N/A     77  44  30 W15       29.86F
WILLISTON      MOSUNNY   80  34  19 W20       29.84S
DICKINSON      SUNNY     78  38  23 W14G21    29.88F
HETTINGER      SUNNY     79  39  23 S5        29.92S
$$

 *****  OTHER AIRPORT OBSERVATIONS IN OUR AREA  *****

CITY           SKY/WX    TMP DP  RH WIND       PRES   REMARKS
WALHALLA       FAIR      79  45  29 MISG      29.77R
GRAFTON AIRPOR FAIR      79  52  38 W16       29.79R
VALLEY CITY AR FAIR      75  59  57 W7        29.86R
CANDO          FAIR      77  41  27 W16       29.82R
CAVALIER APRT  FAIR      81  45  28 W9G17     29.77R
GWINNER        FAIR      75  70  83 SW3       29.86S
ROLLA          FAIR      73  41  31 W17G28    29.82S
 ***** THE ABOVE OBSERVATIONS ARE NON NWS ARE NOT QUALITY
       CONTROLLED AND MAY MIS-REPORT RAIN FOR SNOW...
$$

  *****  WEATHER ACROSS NORTHERN MINNESOTA  *****

CITY           SKY/WX    TMP DP  RH WIND       PRES   REMARKS
FLAG ISLAND    CLOUDY    73  64  73 S5        29.76R
WARROAD        CLOUDY    73  66  78 S3        29.79R
ROSEAU         CLOUDY    75  66  73 SW3       29.79R
HALLOCK        PTSUNNY   81  50  34 W13       29.76R
THF RVR FALLS  CLOUDY   N/A N/A N/A SW6       29.81R
BAUDETTE       CLOUDY    73  66  78 SW5       29.78S
WASKISH        PTSUNNY   72  66  83 SW5       29.81S
CROOKSTON      CLOUDY    81  61  50 W9        29.81R
STEPHEN NDAWN    N/A     79  57  47 SW10        N/A
GREENBUSH NDAW   N/A     77  64  65 S5          N/A
$$
  *****  WEATHER ACROSS CENTRAL AND WEST MINNESOTA  *****

CITY           SKY/WX    TMP DP  RH WIND       PRES   REMARKS
FOSSTON        CLOUDY    75  63  64 CALM      29.84R
BEMIDJI        PTSUNNY   75  66  74 W7        29.84R
PARK RAPIDS    PTSUNNY   80  65  59 W7        29.84R
ELBOW LAKE     FAIR      78  66  68 W6        29.84R
WADENA         PTSUNNY   81  66  61 SW6       29.83S
DETROIT LAKES  CLOUDY    75  66  73 NW7       29.87R
MOORHEAD       CLOUDY    77  66  69 CALM      29.84R
FERGUS FALLS   PTSUNNY   77  66  69 W6        29.83R
MORRIS MN      SUNNY     84  66  54 W8        29.83R
STAPLES        FAIR      81  66  61 S8        29.84S
$$
  *****  WEATHER ELSEWHERE ACROSS MINNESOTA  *****

CITY           SKY/WX    TMP DP  RH WIND       PRES   REMARKS
DULUTH         MOSUNNY   79  67  66 SW15G24   29.86R
INTRNTL FALLS  MOSUNNY   74  66  76 W14       29.79R
ELY            MOSUNNY   79  64  61 SW10G16   29.83R
CLOQUET        SUNNY     79  66  65 S8        29.87R
WHEATON        PTSUNNY   77  66  69 W6        29.86R
BRAINERD       MOSUNNY   81  67  62 S14       29.84S
HIBBING        MOSUNNY   81  64  56 S13G20    29.83R
ALEXANDRIA     MOSUNNY   83  68  60 S10       29.86R
SAINT CLOUD    MOSUNNY   82  67  60 S16G22    29.86S
MINNEAPOLIS    MOSUNNY   85  69  58 S12       29.88S
$$

  *****  WEATHER ACROSS SOUTH DAKOTA  *****

CITY           SKY/WX    TMP DP  RH WIND       PRES   REMARKS
SIOUX FALLS    MOSUNNY   82  69  64 S13       29.88R
BROOKINGS      SUNNY     82  68  61 SW9       29.89S
WATERTOWN      SUNNY     81  66  60 NW13      29.88R
HURON          PTSUNNY   78  66  66 NE7       29.84F HAZE
SISSETON         N/A     80  67  64 N12       29.84R
ABERDEEN       CLOUDY    79  64  60 N7        29.86S
MITCHELL       SUNNY     83  67  58 N8        29.86R
PIERRE         PTSUNNY   77  60  55 NE6       29.88F
MOBRIDGE       CLOUDY    79  60  52 N6        29.86F
RAPID CITY     MOSUNNY   73  57  57 SE10      29.96F
$$

  *****  SOME WEATHER IN NEARBY STATES *****

CITY           SKY/WX    TMP DP  RH WIND       PRES   REMARKS
GLASGOW MT     MOSUNNY   75  37  25 SW10      29.84S
GREAT FALLS MT FAIR      76  35  22 SW22G29   29.88S
CHEYENNE WY    LGT RAIN  66  48  52 NW14G23   30.18R
SCOTTSBLUFF NE MOSUNNY   84  52  33 SE12      29.98S
OMAHA NE       MOSUNNY   85  66  53 S12       29.91S
DES MOINES IA  MOSUNNY   86  70  58 S12       29.93R HX  90
DAVENPORT IA   MOSUNNY   85  72  65 S8        29.99S HX  91
CHICAGO IL     MOSUNNY   84  67  56 S8        30.01S
EAU CLAIRE WI  SUNNY     81  70  69 S10       29.92F
LA CROSSE WI   SUNNY     83  70  64 S12       29.94F
$$

  *****  SOME NATIONAL WEATHER *****

CITY           SKY/WX    TMP DP  RH WIND       PRES   REMARKS
LA GUARDIA NY  MOCLDY    89  63  41 W15       29.94S HX  90
RALEIGH NC     MOCLDY    73  70  88 NE3       30.07S
ATLANTA GA     PTSUNNY   80  68  66 S6        30.09S
NEW ORLEANS LA MOSUNNY   89  67  47 S10       30.01R HX  92
OKLAHOMA CITY  MOSUNNY   92  60  34 S14G21    29.94F HX  91
ALBUQUERQUE NM PTSUNNY   87  41  19 SW17G29   30.08S
SALT LAKE CITY FAIR      86  40  19 NW9       29.98F
LOS ANGELES CA FAIR      75  63  66 SW13      29.87F
BOISE ID       FAIR      81  39  22 NW5       29.94F
SEATTLE WA     CLOUDY    65  56  72 S10G22    29.96F
$$

*** WEATHER ACROSS MANITOBA...SASKATCHEWAN AND ONTARIO ***
                ***ONTARIO***

CITY           SKY/WX    TMP DP  RH WIND       PRES   REMARKS
GERALDTON      PTSUNNY   72  61  68 S14G24    29.79S
THUNDER BAY    PTSUNNY   77  66  69 S3        29.80R
SIOUX LOOKOUT  CLOUDY    73  64  73 W12G20    29.73R
TORONTO        PTCLDY    82  64  54 W10       30.00R
BIG TROUT LK   LGT RAIN  68  64  88 W13G23    29.51F
PICKLE LAKE    LGT RAIN  73  63  68 W21G30    29.65R
DRYDEN         MOSUNNY   72  63  73 W12G17    29.75R
KENORA         CLOUDY    72  66  83 SW8       29.76R
$$
                *** MANITOBA***

CITY           SKY/WX    TMP DP  RH WIND       PRES   REMARKS
BRANDON        MOSUNNY   77  46  33 W18G26    29.74S
DAUPHIN        SUNNY     75  52  43 W13G26    29.65R
ISLAND LAKE    LGT RAIN  66  63  88 SW14G23   29.54S
PILOT MOUND      N/A     75  41  29 W13G22      N/A
THE PAS        MOSUNNY   75  54  46 W12       29.52R
THOMPSON       DRIZZLE   59  57  94 VRB2      29.51S
WINNIPEG       MOSUNNY   77  48  36 W13G24    29.72R
LYNN LAKE      MOSUNNY   64  57  77 MISG      29.49R
CHURCHILL      CLOUDY    48  45  87 SE20      29.60R
GILLAM         CLOUDY    50  48  93 N6        29.52
$$
                ***SASKATCHEWAN***

CITY           SKY/WX    TMP DP  RH WIND       PRES   REMARKS
ESTEVAN        PTSUNNY   77  37  24 W22G28    29.79S
KINDERSLEY     PTSUNNY   73  37  27 SW14G20   29.66
LLOYDMINSTER   PTSUNNY   73  39  29 SW9       29.62R
PRINCE ALBERT  PTSUNNY   77  45  31 W15       29.57R
REGINA         PTSUNNY   73  43  33 W20G26    29.73R
YORKTON        SUNNY     73  45  35 W16G22    29.68R
N. BATTLEFORD  SUNNY     77  36  22 W13G20    29.62S
LA RONGE       MOSUNNY   77  50  38 NW14      29.50R
SASKATOON      PTSUNNY   75  36  23 W15       29.65R
SWIFT CURRENT  SUNNY     75  37  25 W24G31    29.72S
$$
NOTE: THESE ARE AUTOMATED STATIONS WITH LIMITED QUALITY CONTROL
      "FAIR" INDICATES FEW OR NO CLOUDS BELOW 12,000 FEET WITH NO
      SIGNIFICANT WEATHER AND/OR OBSTRUCTIONS TO VISIBILITY.
      SKY/WX - SKY CONDITION AND SIGNIFICANT WEATHER.
      TMP - AIR TEMPERATURE.    DP   - DEWPOINT TEMPERATURE.
      RH  - RELATIVE HUMIDITY.  PRES - PRESSURE.
      HX  - HEAT INDEX.         WCI  - WIND CHILL INDEX.
$


USA.gov is the U.S. government's official web portal to all federal, state and local government web resources and services.